Time,TemperatureF,DewpointF,PressureIn,WindDirection,WindDirectionDegrees,WindSpeedMPH,WindSpeedGustMPH,Humidity,HourlyPrecipIn,Conditions,Clouds,dailyrainin,SoftwareType,DateUTC
2013-03-26 00:16:00,41.6,22.0,30.42,NNE,28,1.0,4.0,45,0.00,,,0.00,weatherlink.com 1.10,2013-03-26 05:16:00,
2013-03-26 00:31:00,41.4,21.0,30.42,NNE,23,2.0,5.0,45,0.00,,,0.00,weatherlink.com 1.10,2013-03-26 05:31:00,
2013-03-26 01:01:00,39.4,22.0,30.42,NE,37,3.0,5.0,50,0.00,,,0.00,weatherlink.com 1.10,2013-03-26 06:01:00,
2013-03-26 01:16:00,38.7,21.0,30.42,NE,38,1.0,3.0,50,0.00,,,0.00,weatherlink.com 1.10,2013-03-26 06:16:00,
2013-03-26 01:31:00,37.7,22.0,30.42,NE,38,1.0,3.0,53,0.00,,,0.00,weatherlink.com 1.10,2013-03-26 06:31:00,
2013-03-26 01:46:00,36.6,22.0,30.42,NE,38,1.0,1.0,57,0.00,,,0.00,weatherlink.com 1.10,2013-03-26 06:46:00,
2013-03-26 02:01:00,36.0,23.0,30.42,NE,38,1.0,2.0,59,0.00,,,0.00,weatherlink.com 1.10,2013-03-26 07:01:00,
2013-03-26 02:16:00,36.0,22.0,30.42,NE,38,2.0,3.0,57,0.00,,,0.00,weatherlink.com 1.10,2013-03-26 07:16:00,
2013-03-26 02:31:00,36.4,22.0,30.42,NE,38,0.0,2.0,57,0.00,,,0.00,weatherlink.com 1.10,2013-03-26 07:31:00,
2013-03-26 03:16:00,35.5,21.0,30.41,NNE,28,2.0,4.0,57,0.00,,,0.00,weatherlink.com 1.10,2013-03-26 08:16:00,
2013-03-26 03:31:00,34.8,23.0,30.41,NNE,17,2.0,3.0,62,0.00,,,0.00,weatherlink.com 1.10,2013-03-26 08:31:00,
2013-03-26 03:47:00,34.0,23.0,30.41,NNE,17,0.0,3.0,65,0.00,,,0.00,weatherlink.com 1.10,2013-03-26 08:47:00,
2013-03-26 04:01:00,31.8,22.0,30.41,NNE,17,2.0,2.0,68,0.00,,,0.00,weatherlink.com 1.10,2013-03-26 09:01:00,
2013-03-26 04:16:00,33.0,23.0,30.41,North,4,2.0,4.0,67,0.00,,,0.00,weatherlink.com 1.10,2013-03-26 09:16:00,
2013-03-26 04:31:00,33.1,23.0,30.41,North,1,1.0,4.0,66,0.00,,,0.00,weatherlink.com 1.10,2013-03-26 09:31:00,
2013-03-26 04:47:00,32.0,22.0,30.42,North,1,1.0,3.0,68,0.00,,,0.00,weatherlink.com 1.10,2013-03-26 09:47:00,
2013-03-26 05:02:00,30.1,22.0,30.42,North,1,2.0,3.0,73,0.00,,,0.00,weatherlink.com 1.10,2013-03-26 10:02:00,
2013-03-26 05:17:00,29.9,22.0,30.42,North,1,0.0,2.0,73,0.00,,,0.00,weatherlink.com 1.10,2013-03-26 10:17:00,
2013-03-26 05:32:00,29.3,22.0,30.43,North,1,0.0,1.0,75,0.00,,,0.00,weatherlink.com 1.10,2013-03-26 10:32:00,
2013-03-26 05:47:00,29.1,23.0,30.43,North,1,0.0,0.0,77,0.00,,,0.00,weatherlink.com 1.10,2013-03-26 10:47:00,
2013-03-26 06:02:00,29.0,23.0,30.43,North,1,0.0,0.0,78,0.00,,,0.00,weatherlink.com 1.10,2013-03-26 11:02:00,
2013-03-26 06:17:00,29.0,23.0,30.44,North,1,1.0,4.0,78,0.00,,,0.00,weatherlink.com 1.10,2013-03-26 11:17:00,
2013-03-26 06:32:00,29.0,23.0,30.45,North,1,1.0,3.0,79,0.00,,,0.00,weatherlink.com 1.10,2013-03-26 11:32:00,
2013-03-26 06:47:00,28.6,23.0,30.46,North,1,3.0,4.0,80,0.00,,,0.00,weatherlink.com 1.10,2013-03-26 11:47:00,
2013-03-26 07:02:00,29.3,23.0,30.47,North,1,0.0,4.0,77,0.00,,,0.00,weatherlink.com 1.10,2013-03-26 12:02:00,
2013-03-26 07:17:00,28.5,23.0,30.47,North,1,0.0,2.0,79,0.00,,,0.00,weatherlink.com 1.10,2013-03-26 12:17:00,
2013-03-26 07:32:00,28.2,22.0,30.48,North,1,0.0,1.0,79,0.00,,,0.00,weatherlink.com 1.10,2013-03-26 12:32:00,
2013-03-26 07:47:00,28.1,23.0,30.48,North,1,0.0,0.0,80,0.00,,,0.00,weatherlink.com 1.10,2013-03-26 12:47:00,
2013-03-26 08:02:00,29.1,24.0,30.49,North,1,0.0,1.0,80,0.00,,,0.00,weatherlink.com 1.10,2013-03-26 13:02:00,
2013-03-26 08:17:00,30.9,25.0,30.49,North,1,0.0,0.0,79,0.00,,,0.00,weatherlink.com 1.10,2013-03-26 13:17:00,
2013-03-26 08:32:00,33.1,26.0,30.49,North,1,0.0,2.0,74,0.00,,,0.00,weatherlink.com 1.10,2013-03-26 13:32:00,
2013-03-26 08:47:00,34.4,26.0,30.50,North,1,2.0,3.0,70,0.00,,,0.00,weatherlink.com 1.10,2013-03-26 13:47:00,
2013-03-26 09:05:00,36.2,26.0,30.51,North,1,0.0,3.0,67,0.00,,,0.00,weatherlink.com 1.10,2013-03-26 14:05:00,
2013-03-26 09:17:00,38.3,27.0,30.51,North,1,2.0,3.0,63,0.00,,,0.00,weatherlink.com 1.10,2013-03-26 14:17:00,
2013-03-26 09:32:00,40.7,27.0,30.51,North,1,1.0,2.0,58,0.00,,,0.00,weatherlink.com 1.10,2013-03-26 14:32:00,
2013-03-26 09:47:00,43.2,27.0,30.51,North,1,2.0,2.0,53,0.00,,,0.00,weatherlink.com 1.10,2013-03-26 14:47:00,
2013-03-26 10:02:00,45.0,24.0,30.51,SSE,148,2.0,7.0,44,0.00,,,0.00,weatherlink.com 1.10,2013-03-26 15:02:00,
2013-03-26 10:17:00,46.6,24.0,30.50,ESE,118,3.0,8.0,41,0.00,,,0.00,weatherlink.com 1.10,2013-03-26 15:17:00,
2013-03-26 10:32:00,48.2,23.0,30.50,ESE,122,1.0,8.0,37,0.00,,,0.00,weatherlink.com 1.10,2013-03-26 15:32:00,
2013-03-26 10:47:00,49.3,23.0,30.50,ESE,120,3.0,8.0,35,0.00,,,0.00,weatherlink.com 1.10,2013-03-26 15:47:00,
2013-03-26 11:03:00,51.1,23.0,30.50,SE,143,3.0,8.0,34,0.00,,,0.00,weatherlink.com 1.10,2013-03-26 16:03:00,
2013-03-26 11:18:00,51.7,21.0,30.50,SE,134,0.0,5.0,30,0.00,,,0.00,weatherlink.com 1.10,2013-03-26 16:18:00,
2013-03-26 11:33:00,52.8,23.0,30.49,SSE,150,4.0,7.0,31,0.00,,,0.00,weatherlink.com 1.10,2013-03-26 16:33:00,
2013-03-26 11:48:00,53.4,20.0,30.48,SE,135,2.0,8.0,27,0.00,,,0.00,weatherlink.com 1.10,2013-03-26 16:48:00,
2013-03-26 12:03:00,54.7,21.0,30.48,SSW,197,4.0,8.0,27,0.00,,,0.00,weatherlink.com 1.10,2013-03-26 17:03:00,
2013-03-26 12:18:00,55.1,24.0,30.47,WSW,255,2.0,7.0,30,0.00,,,0.00,weatherlink.com 1.10,2013-03-26 17:18:00,
2013-03-26 12:33:00,55.0,20.0,30.46,SE,126,3.0,7.0,25,0.00,,,0.00,weatherlink.com 1.10,2013-03-26 17:33:00,
2013-03-26 12:48:00,56.3,23.0,30.46,SSE,157,3.0,5.0,28,0.00,,,0.00,weatherlink.com 1.10,2013-03-26 17:48:00,
2013-03-26 13:03:00,57.7,23.0,30.45,East,91,4.0,9.0,26,0.00,,,0.00,weatherlink.com 1.10,2013-03-26 18:03:00,
2013-03-26 13:18:00,57.6,22.0,30.44,ESE,121,5.0,9.0,25,0.00,,,0.00,weatherlink.com 1.10,2013-03-26 18:18:00,
2013-03-26 13:33:00,59.5,25.0,30.43,SSE,168,5.0,9.0,27,0.00,,,0.00,weatherlink.com 1.10,2013-03-26 18:33:00,
2013-03-26 13:48:00,59.8,24.0,30.42,SSE,156,5.0,8.0,25,0.00,,,0.00,weatherlink.com 1.10,2013-03-26 18:48:00,
2013-03-26 14:03:00,60.7,25.0,30.42,ESE,114,3.0,9.0,26,0.00,,,0.00,weatherlink.com 1.10,2013-03-26 19:03:00,
2013-03-26 14:18:00,60.8,25.0,30.41,South,178,9.0,12.0,26,0.00,,,0.00,weatherlink.com 1.10,2013-03-26 19:18:00,
2013-03-26 14:33:00,60.7,25.0,30.39,SSE,156,5.0,12.0,26,0.00,,,0.00,weatherlink.com 1.10,2013-03-26 19:33:00,
2013-03-26 14:48:00,61.4,25.0,30.39,East,99,4.0,12.0,25,0.00,,,0.00,weatherlink.com 1.10,2013-03-26 19:48:00,
2013-03-26 15:03:00,62.3,25.0,30.38,South,185,6.0,9.0,24,0.00,,,0.00,weatherlink.com 1.10,2013-03-26 20:03:00,
2013-03-26 15:18:00,62.2,27.0,30.37,ESE,102,2.0,10.0,26,0.00,,,0.00,weatherlink.com 1.10,2013-03-26 20:18:00,
2013-03-26 15:33:00,62.5,26.0,30.37,WSW,237,2.0,12.0,25,0.00,,,0.00,weatherlink.com 1.10,2013-03-26 20:33:00,
2013-03-26 15:48:00,62.2,23.0,30.36,South,170,7.0,7.0,22,0.00,,,0.00,weatherlink.com 1.10,2013-03-26 20:48:00,
2013-03-26 16:03:00,62.7,24.0,30.35,ENE,66,2.0,7.0,23,0.00,,,0.00,weatherlink.com 1.10,2013-03-26 21:03:00,
2013-03-26 16:18:00,63.1,22.0,30.34,SE,133,3.0,7.0,21,0.00,,,0.00,weatherlink.com 1.10,2013-03-26 21:18:00,
2013-03-26 16:33:00,62.8,24.0,30.33,ESE,106,2.0,5.0,23,0.00,,,0.00,weatherlink.com 1.10,2013-03-26 21:33:00,
2013-03-26 16:48:00,62.0,21.0,30.33,South,177,2.0,10.0,21,0.00,,,0.00,weatherlink.com 1.10,2013-03-26 21:48:00,
2013-03-26 17:03:00,62.0,23.0,30.32,East,84,1.0,7.0,22,0.00,,,0.00,weatherlink.com 1.10,2013-03-26 22:03:00,
2013-03-26 17:18:00,62.5,21.0,30.32,NNE,16,4.0,7.0,20,0.00,,,0.00,weatherlink.com 1.10,2013-03-26 22:18:00,
2013-03-26 17:33:00,61.4,21.0,30.31,SE,144,5.0,7.0,21,0.00,,,0.00,weatherlink.com 1.10,2013-03-26 22:33:00,
2013-03-26 17:48:00,61.8,22.0,30.31,East,87,3.0,8.0,22,0.00,,,0.00,weatherlink.com 1.10,2013-03-26 22:48:00,
2013-03-26 18:03:00,62.3,22.0,30.30,SE,135,4.0,10.0,21,0.00,,,0.00,weatherlink.com 1.10,2013-03-26 23:03:00,
2013-03-26 18:18:00,62.1,24.0,30.30,SSE,160,3.0,6.0,23,0.00,,,0.00,weatherlink.com 1.10,2013-03-26 23:18:00,
2013-03-26 18:33:00,61.4,23.0,30.30,SE,128,3.0,10.0,23,0.00,,,0.00,weatherlink.com 1.10,2013-03-26 23:33:00,
2013-03-26 18:48:00,60.9,22.0,30.30,ESE,114,6.0,9.0,22,0.00,,,0.00,weatherlink.com 1.10,2013-03-26 23:48:00,
2013-03-26 19:03:00,60.0,23.0,30.30,SSE,147,7.0,10.0,24,0.00,,,0.00,weatherlink.com 1.10,2013-03-27 00:03:00,
2013-03-26 19:18:00,59.5,22.0,30.29,ESE,120,8.0,8.0,24,0.00,,,0.00,weatherlink.com 1.10,2013-03-27 00:18:00,
2013-03-26 19:34:00,58.3,23.0,30.29,SE,137,4.0,9.0,26,0.00,,,0.00,weatherlink.com 1.10,2013-03-27 00:34:00,
2013-03-26 19:49:00,56.6,24.0,30.29,SE,133,4.0,7.0,29,0.00,,,0.00,weatherlink.com 1.10,2013-03-27 00:49:00,
2013-03-26 20:04:00,54.5,25.0,30.30,ESE,120,6.0,9.0,32,0.00,,,0.00,weatherlink.com 1.10,2013-03-27 01:04:00,
2013-03-26 20:19:00,54.6,26.0,30.30,SE,133,4.0,9.0,33,0.00,,,0.00,weatherlink.com 1.10,2013-03-27 01:19:00,
2013-03-26 20:34:00,54.1,26.0,30.29,SE,135,5.0,11.0,34,0.00,,,0.00,weatherlink.com 1.10,2013-03-27 01:34:00,
2013-03-26 20:49:00,53.5,26.0,30.30,SE,137,7.0,10.0,35,0.00,,,0.00,weatherlink.com 1.10,2013-03-27 01:49:00,
2013-03-26 21:04:00,52.7,26.0,30.30,SE,137,7.0,10.0,36,0.00,,,0.00,weatherlink.com 1.10,2013-03-27 02:04:00,
2013-03-26 21:19:00,51.9,26.0,30.30,SE,137,4.0,10.0,37,0.00,,,0.00,weatherlink.com 1.10,2013-03-27 02:19:00,
2013-03-26 21:34:00,51.0,27.0,30.30,SE,133,7.0,10.0,39,0.00,,,0.00,weatherlink.com 1.10,2013-03-27 02:34:00,
2013-03-26 21:49:00,50.4,27.0,30.31,SE,131,7.0,10.0,40,0.00,,,0.00,weatherlink.com 1.10,2013-03-27 02:49:00,
2013-03-26 22:19:00,48.7,27.0,30.31,SE,133,3.0,9.0,43,0.00,,,0.00,weatherlink.com 1.10,2013-03-27 03:19:00,
2013-03-26 22:34:00,48.4,27.0,30.31,SSE,151,8.0,10.0,44,0.00,,,0.00,weatherlink.com 1.10,2013-03-27 03:34:00,
2013-03-26 22:49:00,47.3,27.0,30.32,SE,142,2.0,8.0,46,0.00,,,0.00,weatherlink.com 1.10,2013-03-27 03:49:00,
2013-03-26 23:04:00,46.2,27.0,30.32,SSE,162,2.0,6.0,48,0.00,,,0.00,weatherlink.com 1.10,2013-03-27 04:04:00,
2013-03-26 23:19:00,44.9,28.0,30.31,SSE,151,2.0,5.0,51,0.00,,,0.00,weatherlink.com 1.10,2013-03-27 04:19:00,
2013-03-26 23:34:00,44.6,27.0,30.31,SSE,147,3.0,7.0,51,0.00,,,0.00,weatherlink.com 1.10,2013-03-27 04:34:00,
2013-03-26 23:49:00,45.1,27.0,30.32,SSE,152,5.0,7.0,50,0.00,,,0.00,weatherlink.com 1.10,2013-03-27 04:49:00,